contact:dominique.lefevre@mio.osupytheas.fr, maurice.libes@osupytheas.fr, didier.mallarino@osupytheas.fr
Project:EMSO http://www.emso-fr.org/EMSO-France
Depth: 2436.0 m
Title:EMSO Ligure Ouest : Data MII capteur AQUADOPP
Date,Latitude,Longitude,X_East,Y_North,Z_Up,Amplitude_X,Amplitude_Y,Amplitude_Z,Batterie,SoundSpeed,Heading,Pitch,Roll,Pressure,TIS,Speed,Direction
, degrees North, degrees East, m.s-1, m.s-1,m.s-1, 1, 1, 1, Volt, m.s-1, degree, degree, degree, dbar, degree_C, m.s-1, degree
2024-04-29T00:04:03,42.805,6.029,0.0,0.009,0.006,105.0,105.0,102.0,13.3,1505.2,5.4,-0.8,1.8,2471.746,13.29,0.009,0.0
2024-04-29T00:07:03,42.805,6.029,0.008,0.025,0.022,106.0,104.0,103.0,13.4,1505.2,6.0,-0.8,1.8,2471.753,13.29,0.026,17.7
2024-04-29T00:10:03,42.805,6.029,-0.019,0.005,-0.01,105.0,106.0,102.0,13.4,1505.2,5.5,-0.8,1.8,2471.723,13.29,0.019,284.7
2024-04-29T00:13:03,42.805,6.029,-0.024,0.003,-0.041,104.0,104.0,102.0,13.3,1505.2,3.7,-0.7,1.8,2471.762,13.29,0.024,277.1
2024-04-29T00:16:03,42.805,6.029,0.001,0.005,0.031,106.0,103.0,103.0,13.3,1505.2,5.5,-0.8,1.8,2471.707,13.29,0.005,11.3
2024-04-29T00:19:03,42.805,6.029,0.0,-0.003,-0.009,105.0,104.0,103.0,13.4,1505.2,5.5,-0.7,1.8,2471.755,13.29,0.003,180.0
2024-04-29T00:22:03,42.805,6.029,-0.002,0.011,-0.013,106.0,104.0,102.0,13.4,1505.2,355.3,-0.7,1.8,2471.681,13.29,0.011,349.7
2024-04-29T00:25:03,42.805,6.029,-0.011,0.027,0.007,105.0,104.0,102.0,13.4,1505.2,5.4,-0.7,1.8,2471.686,13.29,0.029,337.8
2024-04-29T00:28:03,42.805,6.029,-0.006,0.024,0.005,105.0,104.0,102.0,13.4,1505.2,10.5,-0.7,1.8,2471.719,13.29,0.024,346.0
2024-04-29T00:31:03,42.805,6.029,-0.01,0.008,0.004,105.0,104.0,103.0,13.3,1505.2,3.6,-0.8,1.8,2471.69,13.29,0.012,308.7
2024-04-29T00:34:03,42.805,6.029,0.004,0.003,0.034,105.0,102.0,103.0,13.4,1505.2,8.1,-0.7,1.8,2471.687,13.29,0.005,53.1
2024-04-29T00:37:03,42.805,6.029,0.007,0.007,0.006,104.0,105.0,102.0,13.4,1505.2,359.4,-0.8,1.8,2471.699,13.29,0.009,45.0
2024-04-29T00:40:03,42.805,6.029,-0.007,0.022,-0.008,103.0,105.0,102.0,13.4,1505.2,10.2,-0.8,1.8,2471.694,13.29,0.023,342.4
2024-04-29T00:43:03,42.805,6.029,-0.003,0.008,0.008,106.0,105.0,103.0,13.3,1505.2,357.7,-0.8,1.8,2471.732,13.29,0.008,339.4
2024-04-29T00:46:03,42.805,6.029,0.022,0.001,0.016,105.0,103.0,102.0,13.4,1505.2,8.6,-0.7,1.8,2471.659,13.29,0.022,87.4
2024-04-29T00:49:03,42.805,6.029,0.012,0.019,0.014,105.0,104.0,103.0,13.4,1505.2,5.7,-0.7,1.9,2471.666,13.29,0.022,32.3
2024-04-29T00:52:03,42.805,6.029,0.003,0.012,0.014,106.0,104.0,102.0,13.4,1505.2,355.1,-0.8,1.8,2471.704,13.29,0.012,14.0
2024-04-29T00:55:03,42.805,6.029,0.001,-0.001,0.0,105.0,105.0,102.0,13.4,1505.2,0.0,-0.8,1.8,2471.707,13.29,0.001,135.0
2024-04-29T00:58:03,42.805,6.029,-0.014,-0.005,-0.016,105.0,104.0,101.0,13.4,1505.2,356.9,-0.7,1.8,2471.662,13.29,0.014,250.4
2024-04-29T01:04:03,42.805,6.029,-0.005,0.017,0.037,106.0,105.0,102.0,13.3,1505.2,0.0,-0.8,1.8,2471.751,13.29,0.017,343.6
2024-04-29T01:07:03,42.805,6.029,0.004,-0.011,0.036,106.0,108.0,104.0,13.3,1505.2,5.8,-0.8,1.8,2471.714,13.29,0.011,160.0
2024-04-29T01:10:02,42.805,6.029,0.017,-0.012,0.015,104.0,103.0,102.0,13.4,1505.2,3.1,-0.7,1.8,2471.71,13.29,0.02,125.2
2024-04-29T01:13:03,42.805,6.029,-0.006,-0.002,-0.013,106.0,104.0,102.0,13.4,1505.2,4.6,-0.8,1.8,2471.696,13.29,0.006,251.6
2024-04-29T01:16:03,42.805,6.029,0.009,-0.002,0.005,105.0,104.0,102.0,13.3,1505.2,6.5,-0.8,1.8,2471.687,13.29,0.009,102.5
2024-04-29T01:19:03,42.805,6.029,0.008,0.02,0.008,105.0,105.0,101.0,13.4,1505.2,4.9,-0.8,1.8,2471.71,13.3,0.021,21.8
2024-04-29T01:22:03,42.805,6.029,0.024,-0.001,0.007,105.0,103.0,102.0,13.4,1505.2,357.4,-0.7,1.8,2471.702,13.3,0.024,92.4
2024-04-29T01:25:03,42.805,6.029,-0.031,0.009,-0.002,105.0,103.0,101.0,13.4,1505.2,5.8,-0.7,1.8,2471.703,13.3,0.032,286.2
2024-04-29T01:28:03,42.805,6.029,-0.003,-0.004,-0.007,105.0,104.0,104.0,13.3,1505.2,9.4,-0.8,1.8,2471.682,13.3,0.005,216.9
2024-04-29T01:31:03,42.805,6.029,0.005,0.007,-0.012,105.0,104.0,102.0,13.4,1505.2,355.1,-0.7,1.8,2471.666,13.3,0.008,35.5
2024-04-29T01:34:03,42.805,6.029,-0.009,0.005,-0.03,104.0,106.0,101.0,13.4,1505.2,357.2,-0.7,1.8,2471.659,13.3,0.01,299.1
2024-04-29T01:37:03,42.805,6.029,-0.007,-0.003,0.011,105.0,106.0,101.0,13.4,1505.2,359.5,-0.8,1.8,2471.677,13.3,0.007,246.8
2024-04-29T01:40:03,42.805,6.029,0.003,0.004,0.035,106.0,104.0,101.0,13.4,1505.2,5.9,-0.7,1.8,2471.697,13.3,0.005,36.9
2024-04-29T01:43:03,42.805,6.029,-0.005,-0.008,0.009,106.0,104.0,102.0,13.3,1505.2,7.8,-0.7,1.8,2471.679,13.3,0.009,212.0
2024-04-29T01:46:03,42.805,6.029,-0.009,0.005,-0.001,105.0,104.0,102.0,13.4,1505.2,3.0,-0.7,1.8,2471.697,13.3,0.01,299.1
2024-04-29T01:49:03,42.805,6.029,0.026,-0.02,0.001,104.0,105.0,105.0,13.4,1505.2,354.5,-0.7,1.8,2471.665,13.3,0.032,127.6
2024-04-29T01:52:03,42.805,6.029,0.011,-0.015,0.008,105.0,105.0,102.0,13.4,1505.2,359.4,-0.8,1.8,2471.696,13.3,0.018,143.7
2024-04-29T01:55:03,42.805,6.029,-0.02,-0.001,0.009,104.0,104.0,102.0,13.3,1505.2,3.9,-0.8,1.8,2471.697,13.3,0.02,267.1
2024-04-29T01:58:03,42.805,6.029,0.0,-0.001,-0.027,105.0,105.0,102.0,13.4,1505.2,356.6,-0.8,1.8,2471.703,13.3,0.001,180.0
2024-04-29T02:04:03,42.805,6.029,-0.005,-0.004,-0.011,105.0,105.0,102.0,13.4,1505.2,1.5,-0.8,1.8,2471.725,13.29,0.006,231.3
2024-04-29T02:07:03,42.805,6.029,0.002,0.004,0.02,105.0,105.0,100.0,13.3,1505.2,3.2,-0.8,1.8,2471.699,13.29,0.004,26.6
2024-04-29T02:10:03,42.805,6.029,-0.007,-0.019,-0.005,106.0,103.0,102.0,13.4,1505.2,359.4,-0.7,1.8,2471.653,13.29,0.02,200.2
2024-04-29T02:13:03,42.805,6.029,-0.017,-0.013,-0.016,105.0,103.0,102.0,13.4,1505.2,356.0,-0.7,1.8,2471.634,13.29,0.021,232.6
2024-04-29T02:16:03,42.805,6.029,0.023,0.003,0.005,105.0,105.0,101.0,13.3,1505.2,4.7,-0.7,1.8,2471.656,13.29,0.023,82.6
2024-04-29T02:19:03,42.805,6.029,0.007,0.007,0.004,105.0,105.0,102.0,13.4,1505.2,356.1,-0.8,1.8,2471.697,13.29,0.009,45.0
2024-04-29T02:22:03,42.805,6.029,-0.004,0.01,0.017,104.0,107.0,101.0,13.4,1505.2,5.7,-0.8,1.8,2471.652,13.29,0.01,338.2
2024-04-29T02:25:03,42.805,6.029,0.009,0.006,0.009,105.0,106.0,102.0,13.3,1505.2,6.8,-0.8,1.8,2471.665,13.29,0.01,56.3
2024-04-29T02:28:03,42.805,6.029,-0.006,-0.005,-0.008,105.0,106.0,102.0,13.3,1505.2,1.0,-0.8,1.8,2471.668,13.29,0.007,230.2
2024-04-29T02:31:03,42.805,6.029,0.001,0.006,-0.002,104.0,104.0,103.0,13.3,1505.2,7.8,-0.7,1.8,2471.685,13.29,0.006,9.5
2024-04-29T02:34:03,42.805,6.029,0.003,-0.019,0.022,105.0,105.0,103.0,13.3,1505.2,4.5,-0.8,1.8,2471.7,13.29,0.019,171.0
2024-04-29T02:37:03,42.805,6.029,0.005,0.013,0.017,105.0,105.0,102.0,13.4,1505.2,355.8,-0.8,1.8,2471.644,13.29,0.013,21.0
2024-04-29T02:40:03,42.805,6.029,-0.021,0.006,0.01,105.0,104.0,102.0,13.4,1505.2,1.5,-0.8,1.8,2471.631,13.29,0.021,285.9
2024-04-29T02:43:03,42.805,6.029,0.004,-0.014,-0.003,106.0,105.0,103.0,13.4,1505.2,9.1,-0.8,1.8,2471.642,13.29,0.014,164.1
2024-04-29T02:46:03,42.805,6.029,-0.023,0.013,-0.006,104.0,104.0,102.0,13.4,1505.2,354.9,-0.7,1.8,2471.635,13.29,0.026,299.5
2024-04-29T02:49:03,42.805,6.029,0.011,-0.007,-0.003,105.0,106.0,101.0,13.3,1505.2,5.8,-0.8,1.8,2471.646,13.29,0.013,122.5
2024-04-29T02:52:03,42.805,6.029,-0.001,0.006,0.01,104.0,113.0,103.0,13.3,1505.2,9.4,-0.7,1.8,2471.626,13.3,0.006,350.5
2024-04-29T02:55:03,42.805,6.029,0.005,-0.001,-0.01,104.0,105.0,103.0,13.4,1505.2,355.5,-0.8,1.8,2471.658,13.3,0.005,101.3
2024-04-29T02:58:03,42.805,6.029,-0.022,0.002,0.002,106.0,105.0,101.0,13.4,1505.2,357.8,-0.7,1.8,2471.622,13.3,0.022,275.2
2024-04-29T03:04:03,42.805,6.029,0.01,-0.017,-0.005,104.0,105.0,101.0,13.3,1505.2,358.4,-0.7,1.8,2471.669,13.29,0.019,149.5
2024-04-29T03:07:03,42.805,6.029,0.005,-0.027,0.013,106.0,104.0,101.0,13.4,1505.2,6.1,-0.7,1.8,2471.656,13.29,0.027,169.5
2024-04-29T03:10:03,42.805,6.029,0.005,0.0,0.0,104.0,104.0,102.0,13.4,1505.2,10.1,-0.8,1.8,2471.653,13.29,0.005,90.0
2024-04-29T03:13:03,42.805,6.029,-0.007,-0.004,-0.002,105.0,103.0,102.0,13.4,1505.2,5.1,-0.7,1.8,2471.666,13.3,0.008,240.3
2024-04-29T03:16:03,42.805,6.029,0.004,-0.006,0.013,105.0,108.0,101.0,13.4,1505.2,9.7,-0.8,1.8,2471.665,13.3,0.007,146.3
2024-04-29T03:19:03,42.805,6.029,-0.015,-0.007,-0.026,104.0,103.0,103.0,13.4,1505.2,10.3,-0.8,1.8,2471.636,13.3,0.016,245.0
2024-04-29T03:22:03,42.805,6.029,0.003,0.007,-0.008,104.0,105.0,101.0,13.3,1505.2,0.0,-0.8,1.8,2471.662,13.3,0.007,23.2
2024-04-29T03:25:03,42.805,6.029,-0.005,-0.027,0.042,105.0,104.0,101.0,13.4,1505.2,0.5,-0.8,1.8,2471.644,13.3,0.027,190.5
2024-04-29T03:28:03,42.805,6.029,-0.01,-0.01,-0.026,105.0,104.0,101.0,13.4,1505.2,10.1,-0.7,1.8,2471.616,13.3,0.014,225.0
2024-04-29T03:31:03,42.805,6.029,-0.009,-0.009,-0.023,104.0,104.0,103.0,13.4,1505.2,352.8,-0.8,1.8,2471.627,13.3,0.012,225.0
2024-04-29T03:34:03,42.805,6.029,-0.008,-0.005,-0.005,107.0,105.0,101.0,13.4,1505.2,3.0,-0.8,1.8,2471.635,13.3,0.009,238.0
2024-04-29T03:37:03,42.805,6.029,-0.011,0.005,-0.02,107.0,106.0,102.0,13.4,1505.2,9.7,-0.7,1.8,2471.653,13.3,0.012,294.4
2024-04-29T03:40:03,42.805,6.029,-0.002,0.001,0.0,106.0,102.0,101.0,13.4,1505.2,3.3,-0.8,1.8,2471.67,13.3,0.002,296.6
2024-04-29T03:43:03,42.805,6.029,-0.013,0.008,0.019,105.0,104.0,101.0,13.3,1505.2,355.3,-0.7,1.8,2471.591,13.3,0.015,301.6
2024-04-29T03:46:03,42.805,6.029,-0.006,0.007,-0.003,103.0,104.0,104.0,13.4,1505.2,5.8,-0.7,1.8,2471.615,13.3,0.009,319.4
2024-04-29T03:49:03,42.805,6.029,-0.001,-0.021,-0.015,106.0,103.0,100.0,13.4,1505.2,7.1,-0.8,1.8,2471.624,13.3,0.021,182.7
2024-04-29T03:52:03,42.805,6.029,-0.021,-0.003,-0.017,106.0,106.0,102.0,13.3,1505.2,8.2,-0.8,1.8,2471.598,13.3,0.021,261.9
2024-04-29T03:55:03,42.805,6.029,-0.001,-0.021,0.022,105.0,104.0,102.0,13.3,1505.2,2.2,-0.7,1.8,2471.6,13.3,0.021,182.7
2024-04-29T03:58:03,42.805,6.029,-0.009,0.004,-0.022,104.0,105.0,103.0,13.4,1505.2,3.9,-0.8,1.8,2471.611,13.3,0.009,294.0
2024-04-29T04:04:03,42.805,6.029,-0.006,-0.028,0.016,104.0,104.0,102.0,13.4,1505.2,2.0,-0.8,1.8,2471.639,13.3,0.028,192.1
2024-04-29T04:07:03,42.805,6.029,-0.004,0.015,-0.003,104.0,104.0,103.0,13.4,1505.2,7.8,-0.7,1.8,2471.611,13.3,0.015,345.1
2024-04-29T04:10:03,42.805,6.029,-0.021,-0.007,-0.022,106.0,104.0,102.0,13.4,1505.2,9.2,-0.8,1.8,2471.625,13.3,0.022,251.6
2024-04-29T04:13:03,42.805,6.029,-0.02,-0.006,0.002,105.0,107.0,103.0,13.3,1505.2,355.3,-0.8,1.8,2471.649,13.3,0.02,253.3
2024-04-29T04:16:03,42.805,6.029,-0.009,-0.005,-0.007,106.0,106.0,102.0,13.4,1505.2,1.0,-0.8,1.8,2471.603,13.3,0.01,240.9
2024-04-29T04:19:03,42.805,6.029,-0.007,0.001,0.0,104.0,106.0,104.0,13.4,1505.2,354.9,-0.8,1.8,2471.617,13.3,0.007,278.1
2024-04-29T04:22:03,42.805,6.029,-0.007,-0.009,0.011,104.0,105.0,101.0,13.4,1505.2,5.5,-0.8,1.8,2471.628,13.3,0.011,217.9
2024-04-29T04:25:03,42.805,6.029,-0.004,-0.013,-0.01,105.0,105.0,102.0,13.4,1505.2,358.9,-0.8,1.8,2471.64,13.3,0.013,197.1
2024-04-29T04:28:03,42.805,6.029,-0.004,-0.006,0.048,107.0,103.0,101.0,13.4,1505.2,356.4,-0.8,1.8,2471.603,13.3,0.007,213.7
2024-04-29T04:31:03,42.805,6.029,-0.012,0.001,0.011,105.0,104.0,102.0,13.4,1505.2,3.1,-0.7,1.8,2471.614,13.3,0.012,274.8
2024-04-29T04:34:03,42.805,6.029,-0.015,-0.019,0.019,104.0,101.0,101.0,13.3,1505.2,357.8,-0.8,1.8,2471.612,13.3,0.024,218.3
2024-04-29T04:37:03,42.805,6.029,-0.008,-0.006,0.004,104.0,103.0,102.0,13.3,1505.2,8.8,-0.8,1.8,2471.615,13.3,0.01,233.1
2024-04-29T04:40:03,42.805,6.029,-0.027,0.002,0.0,105.0,108.0,102.0,13.3,1505.2,354.4,-0.7,1.8,2471.602,13.3,0.027,274.2
2024-04-29T04:43:03,42.805,6.029,-0.019,0.007,0.003,105.0,103.0,102.0,13.4,1505.2,3.9,-0.7,1.8,2471.619,13.3,0.02,290.2
2024-04-29T04:46:03,42.805,6.029,0.003,0.011,0.011,103.0,103.0,102.0,13.4,1505.2,355.8,-0.7,1.8,2471.646,13.3,0.011,15.3
2024-04-29T04:49:03,42.805,6.029,-0.012,0.007,-0.02,104.0,105.0,101.0,13.3,1505.2,4.9,-0.8,1.8,2471.631,13.3,0.013,300.3
2024-04-29T04:52:03,42.805,6.029,0.008,-0.014,-0.02,102.0,105.0,102.0,13.4,1505.2,8.7,-0.8,1.8,2471.59,13.3,0.016,150.3
2024-04-29T04:55:03,42.805,6.029,-0.011,-0.009,0.01,104.0,104.0,101.0,13.3,1505.2,354.5,-0.8,1.8,2471.584,13.3,0.014,230.7
2024-04-29T04:58:03,42.805,6.029,0.01,0.002,0.012,104.0,104.0,102.0,13.3,1505.2,1.6,-0.7,1.8,2471.588,13.3,0.01,78.7
2024-04-29T05:04:03,42.805,6.029,-0.009,-0.007,0.004,105.0,104.0,102.0,13.4,1505.2,3.6,-0.8,1.8,2471.623,13.3,0.011,232.1
2024-04-29T05:07:03,42.805,6.029,0.003,-0.013,0.0,104.0,104.0,101.0,13.4,1505.2,359.4,-0.8,1.8,2471.579,13.3,0.013,167.0
2024-04-29T05:10:03,42.805,6.029,0.0,-0.009,0.019,104.0,104.0,101.0,13.4,1505.2,2.1,-0.8,1.8,2471.637,13.3,0.009,180.0
2024-04-29T05:13:03,42.805,6.029,0.003,0.006,-0.008,104.0,104.0,102.0,13.4,1505.2,9.0,-0.8,1.8,2471.592,13.3,0.006,26.6
2024-04-29T05:16:03,42.805,6.029,0.018,-0.007,0.012,103.0,105.0,101.0,13.4,1505.2,352.9,-0.8,1.8,2471.602,13.3,0.019,111.2
2024-04-29T05:19:03,42.805,6.029,-0.03,-0.009,-0.008,105.0,103.0,104.0,13.4,1505.2,0.0,-0.8,1.8,2471.612,13.3,0.031,253.3
2024-04-29T05:22:03,42.805,6.029,-0.015,0.001,0.016,105.0,103.0,102.0,13.4,1505.2,8.7,-0.8,1.8,2471.628,13.3,0.015,273.8
2024-04-29T05:25:03,42.805,6.029,-0.02,-0.004,0.016,105.0,105.0,102.0,13.4,1505.2,354.6,-0.8,1.8,2471.622,13.3,0.02,258.7
2024-04-29T05:28:03,42.805,6.029,-0.018,-0.011,0.003,105.0,106.0,103.0,13.4,1505.2,6.0,-0.8,1.8,2471.586,13.3,0.021,238.6
2024-04-29T05:31:03,42.805,6.029,-0.001,-0.008,0.016,106.0,104.0,101.0,13.3,1505.2,9.5,-0.7,1.8,2471.593,13.3,0.008,187.1
2024-04-29T05:34:03,42.805,6.029,0.001,-0.018,0.0,104.0,104.0,101.0,13.4,1505.2,356.1,-0.7,1.8,2471.62,13.3,0.018,176.8
2024-04-29T05:37:03,42.805,6.029,-0.002,-0.009,-0.018,105.0,103.0,101.0,13.4,1505.2,8.2,-0.8,1.8,2471.593,13.3,0.009,192.5
2024-04-29T05:40:03,42.805,6.029,-0.014,0.011,0.01,106.0,103.0,101.0,13.4,1505.2,357.4,-0.8,1.8,2471.581,13.3,0.017,308.2
2024-04-29T05:43:03,42.805,6.029,0.002,-0.02,0.011,105.0,104.0,103.0,13.4,1505.2,359.4,-0.8,1.8,2471.577,13.29,0.02,174.3
2024-04-29T05:46:03,42.805,6.029,-0.007,-0.008,0.011,104.0,104.0,102.0,13.4,1505.2,3.8,-0.7,1.8,2471.639,13.29,0.01,221.2
2024-04-29T05:49:03,42.805,6.029,0.0,-0.009,-0.011,108.0,106.0,102.0,13.4,1505.2,0.5,-0.7,1.8,2471.612,13.29,0.009,180.0
2024-04-29T05:52:03,42.805,6.029,-0.005,-0.025,-0.01,105.0,103.0,102.0,13.4,1505.2,4.9,-0.7,1.8,2471.627,13.29,0.025,191.3
2024-04-29T05:55:03,42.805,6.029,-0.012,-0.013,0.017,103.0,104.0,101.0,13.3,1505.2,359.0,-0.8,1.8,2471.604,13.29,0.017,222.7
2024-04-29T05:58:03,42.805,6.029,-0.006,-0.006,-0.012,106.0,106.0,101.0,13.4,1505.2,6.0,-0.8,1.8,2471.601,13.29,0.008,225.0
2024-04-29T06:04:02,42.805,6.029,-0.022,-0.01,-0.014,105.0,104.0,102.0,13.4,1505.2,355.0,-0.8,1.8,2471.627,13.29,0.024,245.6
2024-04-29T06:07:03,42.805,6.029,-0.031,-0.011,-0.001,104.0,105.0,103.0,13.4,1505.2,3.0,-0.7,1.8,2471.593,13.29,0.032,250.5
2024-04-29T06:10:03,42.805,6.029,-0.018,-0.006,0.01,105.0,104.0,102.0,13.3,1505.2,9.4,-0.8,1.8,2471.61,13.29,0.018,251.6
2024-04-29T06:13:03,42.805,6.029,-0.017,0.006,-0.011,106.0,106.0,102.0,13.3,1505.2,4.4,-0.8,1.8,2471.614,13.29,0.018,289.4
2024-04-29T06:16:03,42.805,6.029,-0.044,-0.023,-0.022,107.0,104.0,102.0,13.4,1505.2,4.7,-0.8,1.8,2471.614,13.29,0.049,242.4
2024-04-29T06:19:03,42.805,6.029,-0.023,0.013,0.005,105.0,104.0,102.0,13.4,1505.2,358.4,-0.8,1.8,2471.601,13.29,0.026,299.5
2024-04-29T06:22:03,42.805,6.029,-0.021,-0.017,0.0,105.0,105.0,101.0,13.3,1505.2,6.7,-0.8,1.8,2471.563,13.29,0.027,231.0
2024-04-29T06:25:03,42.805,6.029,-0.036,-0.008,-0.012,105.0,104.0,102.0,13.4,1505.2,4.4,-0.7,1.8,2471.623,13.29,0.036,257.5
2024-04-29T06:28:03,42.805,6.029,-0.022,0.0,0.005,104.0,104.0,103.0,13.4,1505.2,7.8,-0.8,1.8,2471.61,13.29,0.022,270.0
2024-04-29T06:31:03,42.805,6.029,-0.03,0.005,0.013,105.0,104.0,102.0,13.4,1505.2,353.6,-0.7,1.8,2471.608,13.29,0.03,279.5
2024-04-29T06:34:03,42.805,6.029,-0.025,0.004,-0.012,106.0,104.0,101.0,13.4,1505.2,358.9,-0.8,1.8,2471.59,13.29,0.025,279.1
2024-04-29T06:37:03,42.805,6.029,-0.017,0.014,0.013,105.0,104.0,102.0,13.4,1505.2,353.0,-0.8,1.8,2471.571,13.29,0.022,309.5
2024-04-29T06:40:03,42.805,6.029,-0.018,-0.019,-0.033,105.0,104.0,102.0,13.3,1505.2,4.3,-0.8,1.8,2471.613,13.29,0.026,223.5
2024-04-29T06:43:03,42.805,6.029,-0.028,0.0,0.006,105.0,104.0,102.0,13.3,1505.2,2.5,-0.8,1.8,2471.585,13.29,0.028,270.0
2024-04-29T06:46:03,42.805,6.029,-0.027,-0.013,-0.017,106.0,105.0,102.0,13.3,1505.2,6.5,-0.7,1.8,2471.58,13.29,0.029,244.3
2024-04-29T06:49:03,42.805,6.029,-0.015,-0.027,-0.003,105.0,104.0,102.0,13.3,1505.2,7.8,-0.8,1.8,2471.576,13.29,0.03,209.1
2024-04-29T06:52:03,42.805,6.029,-0.015,-0.024,-0.011,106.0,104.0,102.0,13.3,1505.2,355.3,-0.7,1.8,2471.602,13.29,0.028,212.0
2024-04-29T06:55:03,42.805,6.029,0.006,-0.006,0.018,104.0,104.0,102.0,13.4,1505.2,3.7,-0.8,1.8,2471.641,13.29,0.008,135.0
2024-04-29T06:58:03,42.805,6.029,-0.021,0.011,-0.02,106.0,104.0,102.0,13.3,1505.2,356.4,-0.8,1.8,2471.582,13.29,0.023,297.6
2024-04-29T07:04:03,42.805,6.029,-0.02,0.008,0.007,105.0,104.0,102.0,13.4,1505.2,356.6,-0.8,1.8,2471.661,13.29,0.021,291.8
2024-04-29T07:07:03,42.805,6.029,-0.03,0.0,-0.035,105.0,104.0,103.0,13.4,1505.2,358.9,-0.8,1.8,2471.636,13.29,0.03,270.0
2024-04-29T07:10:03,42.805,6.029,-0.017,-0.004,0.0,105.0,105.0,102.0,13.4,1505.2,354.7,-0.8,1.8,2471.629,13.29,0.017,256.8
2024-04-29T07:13:03,42.805,6.029,-0.029,-0.006,-0.003,105.0,105.0,103.0,13.4,1505.2,2.0,-0.7,1.8,2471.618,13.29,0.029,258.3
2024-04-29T07:16:03,42.805,6.029,-0.012,-0.019,0.012,105.0,105.0,104.0,13.4,1505.2,2.7,-0.7,1.9,2471.677,13.29,0.022,212.3
2024-04-29T07:19:03,42.805,6.029,-0.032,-0.017,0.012,105.0,104.0,103.0,13.4,1505.2,353.0,-0.8,1.8,2471.608,13.29,0.036,242.0
2024-04-29T07:22:03,42.805,6.029,-0.027,-0.012,0.0,105.0,103.0,103.0,13.4,1505.2,5.4,-0.8,1.8,2471.635,13.29,0.029,246.0
2024-04-29T07:25:03,42.805,6.029,-0.04,-0.008,-0.023,106.0,104.0,103.0,13.4,1505.2,9.5,-0.7,1.8,2471.639,13.29,0.04,258.7
2024-04-29T07:28:03,42.805,6.029,-0.023,0.007,0.006,104.0,105.0,102.0,13.4,1505.2,1.1,-0.7,1.9,2471.66,13.29,0.024,286.9
2024-04-29T07:31:03,42.805,6.029,-0.019,-0.001,0.007,105.0,104.0,102.0,13.4,1505.2,358.9,-0.8,1.9,2471.605,13.29,0.019,267.0
2024-04-29T07:34:03,42.805,6.029,-0.035,-0.01,-0.029,105.0,104.0,103.0,13.3,1505.2,353.0,-0.7,1.8,2471.631,13.29,0.036,254.1
2024-04-29T07:37:03,42.805,6.029,-0.017,-0.019,0.0,106.0,105.0,102.0,13.4,1505.2,359.4,-0.8,1.8,2471.63,13.29,0.025,221.8
2024-04-29T07:40:03,42.805,6.029,-0.033,0.001,-0.01,106.0,105.0,103.0,13.3,1505.2,356.4,-0.8,1.8,2471.644,13.29,0.033,271.7
2024-04-29T07:43:03,42.805,6.029,-0.016,-0.004,0.022,105.0,104.0,103.0,13.4,1505.2,5.9,-0.8,1.8,2471.619,13.29,0.016,256.0
2024-04-29T07:46:03,42.805,6.029,-0.026,-0.005,-0.027,106.0,104.0,103.0,13.4,1505.2,1.6,-0.7,1.8,2471.615,13.29,0.026,259.1
2024-04-29T07:49:03,42.805,6.029,-0.041,0.016,0.009,105.0,105.0,102.0,13.3,1505.2,6.2,-0.7,1.8,2471.656,13.29,0.044,291.3
2024-04-29T07:52:03,42.805,6.029,-0.032,-0.003,-0.019,105.0,105.0,103.0,13.3,1505.2,6.4,-0.7,1.8,2471.671,13.29,0.032,264.6
2024-04-29T07:55:03,42.805,6.029,-0.046,0.001,-0.022,106.0,105.0,103.0,13.4,1505.2,7.8,-0.7,1.8,2471.615,13.29,0.046,271.2
2024-04-29T07:58:03,42.805,6.029,-0.033,-0.012,-0.006,105.0,105.0,102.0,13.3,1505.2,0.5,-0.8,1.8,2471.651,13.29,0.035,250.0
2024-04-29T08:04:03,42.805,6.029,-0.02,0.013,-0.006,106.0,104.0,103.0,13.3,1505.2,6.6,-0.8,1.8,2471.636,13.29,0.023,303.0
2024-04-29T08:07:03,42.805,6.029,-0.034,0.004,-0.01,106.0,105.0,103.0,13.4,1505.2,1.1,-0.8,1.9,2471.667,13.29,0.034,276.7
2024-04-29T08:10:03,42.805,6.029,-0.031,0.001,0.003,106.0,105.0,101.0,13.4,1505.2,357.3,-0.8,1.8,2471.65,13.29,0.031,271.8
2024-04-29T08:13:03,42.805,6.029,-0.031,0.006,-0.022,106.0,106.0,103.0,13.4,1505.2,1.0,-0.8,1.8,2471.664,13.29,0.031,281.0
2024-04-29T08:16:03,42.805,6.029,-0.031,0.0,-0.007,106.0,106.0,103.0,13.4,1505.2,2.7,-0.7,1.8,2471.669,13.29,0.03,270.0
2024-04-29T08:19:03,42.805,6.029,-0.02,0.014,-0.013,106.0,105.0,104.0,13.3,1505.2,3.9,-0.7,1.8,2471.662,13.29,0.024,305.0
2024-04-29T08:22:03,42.805,6.029,-0.019,0.003,0.011,105.0,106.0,103.0,13.3,1505.2,357.9,-0.8,1.8,2471.679,13.29,0.019,279.0
2024-04-29T08:25:03,42.805,6.029,-0.041,0.003,0.008,105.0,105.0,104.0,13.4,1505.2,4.3,-0.8,1.8,2471.643,13.29,0.041,274.2
2024-04-29T08:28:03,42.805,6.029,-0.031,-0.016,-0.005,106.0,107.0,102.0,13.3,1505.2,1.6,-0.7,1.8,2471.658,13.29,0.034,242.7
2024-04-29T08:31:03,42.805,6.029,-0.027,-0.013,-0.029,106.0,105.0,103.0,13.4,1505.2,0.5,-0.7,1.8,2471.669,13.29,0.029,244.3
2024-04-29T08:34:03,42.805,6.029,-0.028,-0.004,-0.024,106.0,104.0,104.0,13.4,1505.2,359.4,-0.8,1.8,2471.677,13.29,0.028,261.9
2024-04-29T08:37:03,42.805,6.029,-0.012,0.002,0.003,105.0,105.0,103.0,13.4,1505.2,6.7,-0.8,1.8,2471.685,13.29,0.012,279.5
2024-04-29T08:40:03,42.805,6.029,-0.005,-0.003,0.018,106.0,105.0,103.0,13.4,1505.2,354.6,-0.8,1.8,2471.631,13.29,0.005,239.0
2024-04-29T08:43:03,42.805,6.029,-0.035,0.015,0.0,105.0,106.0,103.0,13.3,1505.2,3.0,-0.7,1.8,2471.657,13.29,0.038,293.2
2024-04-29T08:46:03,42.805,6.029,-0.028,0.011,-0.01,106.0,105.0,104.0,13.3,1505.2,5.0,-0.7,1.8,2471.654,13.29,0.03,291.4
2024-04-29T08:49:03,42.805,6.029,-0.044,0.001,0.0,105.0,105.0,102.0,13.4,1505.2,356.4,-0.7,1.8,2471.671,13.29,0.044,271.3
2024-04-29T08:52:03,42.805,6.029,-0.035,-0.002,0.015,106.0,105.0,102.0,13.4,1505.2,358.9,-0.7,1.8,2471.684,13.29,0.035,266.7
2024-04-29T08:55:03,42.805,6.029,-0.022,0.01,-0.015,106.0,106.0,103.0,13.3,1505.2,1.6,-0.8,1.8,2471.654,13.29,0.024,294.4
2024-04-29T08:58:03,42.805,6.029,-0.038,0.016,-0.009,106.0,106.0,103.0,13.4,1505.2,9.1,-0.8,1.8,2471.654,13.29,0.041,292.8
2024-04-29T09:04:03,42.805,6.029,-0.028,0.005,-0.04,106.0,105.0,103.0,13.4,1505.2,6.1,-0.7,1.8,2471.681,13.29,0.028,280.1
2024-04-29T09:07:03,42.805,6.029,-0.037,0.001,-0.02,105.0,104.0,103.0,13.4,1505.2,354.8,-0.8,1.8,2471.682,13.29,0.037,271.5
2024-04-29T09:10:03,42.805,6.029,-0.042,0.015,0.013,106.0,104.0,103.0,13.4,1505.2,358.9,-0.8,1.8,2471.688,13.29,0.044,289.6
2024-04-29T09:13:03,42.805,6.029,0.0,0.033,0.016,106.0,105.0,104.0,13.4,1505.2,8.7,-0.7,1.8,2471.687,13.29,0.033,0.0
2024-04-29T09:16:03,42.805,6.029,-0.037,0.002,-0.019,108.0,105.0,102.0,13.4,1505.2,8.7,-0.8,1.8,2471.652,13.29,0.037,273.1
2024-04-29T09:19:03,42.805,6.029,-0.032,0.011,-0.029,106.0,106.0,104.0,13.3,1505.2,352.8,-0.8,1.8,2471.66,13.29,0.033,289.0
2024-04-29T09:22:03,42.805,6.029,-0.012,0.011,-0.022,106.0,105.0,102.0,13.3,1505.2,0.0,-0.8,1.8,2471.665,13.29,0.016,312.5
2024-04-29T09:25:03,42.805,6.029,-0.043,0.026,-0.006,106.0,106.0,104.0,13.4,1505.2,5.0,-0.8,1.8,2471.677,13.29,0.05,301.2
2024-04-29T09:28:03,42.805,6.029,-0.031,0.028,0.003,106.0,105.0,103.0,13.4,1505.2,357.8,-0.8,1.8,2471.653,13.29,0.041,312.1
2024-04-29T09:31:03,42.805,6.029,-0.037,0.009,-0.014,106.0,105.0,103.0,13.4,1505.2,358.8,-0.8,1.8,2471.676,13.29,0.038,283.7
2024-04-29T09:34:03,42.805,6.029,-0.032,0.013,-0.013,106.0,105.0,102.0,13.4,1505.2,6.0,-0.8,1.8,2471.677,13.29,0.034,292.1
2024-04-29T09:37:03,42.805,6.029,-0.019,0.037,-0.037,106.0,105.0,102.0,13.4,1505.2,9.1,-0.8,1.8,2471.654,13.29,0.041,332.8
2024-04-29T09:40:03,42.805,6.029,-0.024,0.003,-0.023,106.0,105.0,102.0,13.3,1505.2,6.5,-0.7,1.8,2471.651,13.29,0.024,277.1
2024-04-29T09:43:03,42.805,6.029,-0.054,0.018,0.0,106.0,105.0,103.0,13.4,1505.2,2.7,-0.8,1.8,2471.665,13.29,0.056,288.4
2024-04-29T09:46:03,42.805,6.029,-0.021,0.033,0.016,105.0,106.0,101.0,13.4,1505.2,5.7,-0.8,1.8,2471.705,13.29,0.039,327.5
2024-04-29T09:49:03,42.805,6.029,-0.029,0.025,-0.007,105.0,106.0,102.0,13.4,1505.2,9.2,-0.7,1.8,2471.649,13.29,0.038,310.8
2024-04-29T09:52:03,42.805,6.029,-0.029,0.0,-0.016,106.0,105.0,103.0,13.4,1505.2,353.0,-0.7,1.8,2471.676,13.29,0.028,270.0
2024-04-29T09:55:03,42.805,6.029,-0.038,0.016,-0.012,107.0,104.0,102.0,13.4,1505.2,3.6,-0.8,1.8,2471.664,13.29,0.041,292.8
2024-04-29T09:58:03,42.805,6.029,-0.049,0.01,-0.008,106.0,104.0,102.0,13.3,1505.2,8.5,-0.7,1.8,2471.697,13.29,0.05,281.5
2024-04-29T10:04:03,42.805,6.029,-0.036,0.025,-0.025,105.0,104.0,103.0,13.4,1505.2,0.0,-0.8,1.8,2471.71,13.29,0.043,304.8
2024-04-29T10:07:03,42.805,6.029,-0.033,0.007,-0.006,104.0,106.0,103.0,13.4,1505.2,9.0,-0.7,1.9,2471.688,13.29,0.033,282.0